Regional Weather Roundup
Issued by NWS

Home | Current Version | Previous Version | Graphics & Text | Print | Product List | Glossary On
Versions: 1 2 3 4 5 6 7 8 9 10 11 12 13 14 15 16 17 18 19 20 21 22 23 24 25 26 27 28 29 30 31 32 33 34 35 36 37 38 39 40 41 42 43 44 45 46 47 48 49 50
000
ASUS43 KBIS 240802
RWRND

NORTH DAKOTA REGIONAL WEATHER ROUNDUP
NATIONAL WEATHER SERVICE BISMARCK ND
300 AM CDT WED AUG 24 2016

NOTE: "FAIR" INDICATES FEW OR NO CLOUDS BELOW 12,000 FEET WITH NO
SIGNIFICANT WEATHER AND/OR OBSTRUCTIONS TO VISIBILITY.


NDZ001>003-009>011-017-240900-
NORTHWEST NORTH DAKOTA

CITY           SKY/WX    TMP DP  RH WIND       PRES   REMARKS
WILLISTON      CLEAR     58  47  66 W17       29.95R
MINOT          CLEAR     62  48  60 W14G23    29.86R
MINOT AFB      CLEAR     58  49  71 W10       29.85R
$$

NDZ018>021-031>035-040>046-240900-
SOUTHWEST NORTH DAKOTA

CITY           SKY/WX    TMP DP  RH WIND       PRES   REMARKS
BISMARCK       CLEAR     54  47  77 W6        29.94R
DICKINSON      CLEAR     56  46  69 W16       29.98S
GARRISON         N/A     57  49  74 W8        29.90S
HETTINGER ARPT CLEAR     51  44  77 W8        30.05R
$$

NDZ004>008-012>016-024-026-027-054-240900-
NORTHEAST NORTH DAKOTA

CITY           SKY/WX    TMP DP  RH WIND       PRES   REMARKS
GRAND FORKS    CLEAR     59  55  87 W7        29.79F
GRND FRKS AFB  CLEAR     57  53  88 W8        29.81R
DEVILS LAKE    CLEAR     63  51  65 W14       29.84S
$$

NDZ022-023-025-028>030-036>039-047>053-240900-
SOUTHEAST NORTH DAKOTA

CITY           SKY/WX    TMP DP  RH WIND       PRES   REMARKS
FARGO          CLOUDY    68  57  68 W8        29.82S
JAMESTOWN      CLEAR     53  50  89 SW3       29.88R
$$





USA.gov is the U.S. government's official web portal to all federal, state and local government web resources and services.